This is the latest recevied weather packets stored in our database for station/object SV9TNF-52. If no packets are shown the sender has not sent any weather packets the latest 10 day(s).
| Time | Temp. | Humidity | Pressure | Rain* | Wind** | Luminosity | Snow |
|---|---|---|---|---|---|---|---|
| 1788483568 | 22.78° C | 80% | 1018.3 hPa | 0 mm | 5.36 m/s, 206° | - | - |
| 1788483269 | 22.78° C | 80% | 1018.3 hPa | 0 mm | 4.92 m/s, 207° | - | - |
| 1788482968 | 22.78° C | 80% | 1018 hPa | 0 mm | 5.36 m/s, 243° | - | - |
| 1788482675 | 22.78° C | 80% | 1018 hPa | 0 mm | 6.26 m/s, 189° | - | - |
| 1788482368 | 22.78° C | 81% | 1018 hPa | 0 mm | 5.36 m/s, 251° | - | - |
| 1788482068 | 22.78° C | 81% | 1018.3 hPa | 0 mm | 6.26 m/s, 265° | - | - |
| 1788481768 | 22.78° C | 81% | 1018.3 hPa | 0 mm | 4.92 m/s, 235° | - | - |
| 1788481468 | 22.78° C | 81% | 1018 hPa | 0 mm | 4.02 m/s, 225° | - | - |
| 1788481168 | 22.78° C | 81% | 1018 hPa | 0 mm | 5.81 m/s, 236° | - | - |
| 1788480868 | 22.22° C | 80% | 1018 hPa | 0 mm | 4.02 m/s, 236° | - | - |
| 1788480568 | 22.78° C | 80% | 1018 hPa | 0 mm | 4.92 m/s, 213° | - | - |
| 1788480267 | 22.78° C | 80% | 1018 hPa | 0 mm | 4.92 m/s, 217° | - | - |
| 1788479967 | 22.78° C | 80% | 1018.3 hPa | 0 mm | 6.26 m/s, 196° | - | - |
| 1788479667 | 22.78° C | 79% | 1018.3 hPa | 0 mm | 3.13 m/s, 193° | - | - |
| 1788479367 | 22.78° C | 79% | 1018.3 hPa | 0 mm | 5.81 m/s, 233° | - | - |
| 1788479067 | 22.78° C | 79% | 1018.3 hPa | 0 mm | 5.36 m/s, 232° | - | - |
| 1788478767 | 22.78° C | 78% | 1018.3 hPa | 0 mm | 6.26 m/s, 203° | - | - |
| 1788478467 | 22.78° C | 78% | 1018.3 hPa | 0 mm | 4.92 m/s, 150° | - | - |
| 1788478174 | 22.78° C | 77% | 1018.3 hPa | 0 mm | 5.81 m/s, 195° | - | - |
| 1788477867 | 23.33° C | 77% | 1019 hPa | 0 mm | 4.92 m/s, 186° | - | - |
| 1788477566 | 23.33° C | 76% | 1019 hPa | 0 mm | 4.02 m/s, 134° | - | - |
| 1788477266 | 23.33° C | 76% | 1019 hPa | 0 mm | 2.68 m/s, 93° | - | - |
| 1788476966 | 23.89° C | 77% | 1019 hPa | 0 mm | 4.02 m/s, 244° | - | - |
| 1788476666 | 23.33° C | 77% | 1019 hPa | 0 mm | 2.24 m/s, 265° | - | - |
| 1788476366 | 23.33° C | 77% | 1019 hPa | 0 mm | 2.68 m/s, 194° | - | - |
* Rain latest hour (hover to see other rain measurements)
** Current wind speed in m/s (hover to see current wind gust speed)